www.pogodaiklimat.ru

Погода и климат >> Архив погоды >> Германия >> Berlin


АРХИВ ПОГОДЫ в Berlin

Время (UTC), дата Ветер
(напр.,м/с)
 
Видим.   Явления Облачность Т
(С)
Тd
(С)
f
(%)
Тe
(С)
Тes
(С)
Комфортность P
(гПа)
Po
(гПа)
Тmin
(С)
Tmax
(С)
R
(мм)
S
(см)
11 22.03 Ю 1-4
{6}
н/о н/о +10.6 -0.5 46 +11 +11 тепло 1018.8 1012.8
10 22.03 Ю 2-4
{5}
н/о н/о +9.3 +0.3 53 +8 +8 тепло 1018.7 1012.7
12 22.03 В 2-4
{6}
н/о н/о +10.6 -0.5 46 +10 +10 тепло 1018.5 1012.5
13 22.03 В 2-5
{5}
н/о н/о +10.8 -1.1 44 +10 +10 тепло 1018.3 1012.3
14 22.03 В 3-5
{5}
н/о н/о +10.7 -0.4 46 +9 +9 тепло 1018.3 1012.3
15 22.03 В 4-6
{6}
н/о н/о +10.6 -0.6 46 +9 +9 тепло 1018.1 1012.1
17 22.03 ЮВ 4-5
{6}
н/о н/о +9.7 +0.5 53 +7 +7 тепло 1018.7 1012.7
16 22.03 В 4-6
{6}
н/о н/о +10.3 0.0 49 +8 +8 тепло 1018.2 1012.2
18 22.03 В 3 н/о н/о +8.9 -0.1 53 +7 +7 по сезону 1019.1 1013.1 +3.2 +11.4
19 22.03 В 3-4
{5}
н/о н/о +8.6 -0.3 54 +6 +6 тепло 1019.4 1013.4
20 22.03 В 3-6
{6}
н/о н/о +8.1 -0.1 56 +6 +6 тепло 1019.6 1013.6
21 22.03 В 4-7
{7}
н/о н/о +8.0 -1.7 50 +5 +5 по сезону 1019.6 1013.6
23 22.03 В 4-6
{7}
н/о н/о +7.1 -1.1 56 +4 +4 тепло 1019.9 1013.8
22 22.03 В 4-7
{7}
н/о н/о +7.5 -1.6 52 +5 +5 тепло 1019.8 1013.8
00 23.03 В 4 н/о н/о +6.7 -0.3 61 +3 +3 по сезону 1019.6 1013.5
01 23.03 В 5-7
{7}
н/о н/о +6.6 +0.9 67 +3 +3 тепло 1019.5 1013.4
02 23.03 В 5-7
{7}
н/о н/о +6.6 +1.9 72 +3 +3 тепло 1019.4 1013.3
03 23.03 В 5-6
{7}
н/о н/о +6.4 +2.1 74 +2 +2 по сезону 1019.1 1013.0
04 23.03 В 4-6
{8}
н/о н/о +6.3 +2.4 76 +3 +3 тепло 1019.2 1013.1
05 23.03 В 4-6
{7}
н/о н/о +6.3 +2.4 76 +3 +3 тепло 1019.3 1013.2
06 23.03 В 4 н/о н/о +6.2 +2.1 75 +3 +3 по сезону 1019.6 1013.5 +6.2 +9.0
07 23.03 В 4-6
{7}
н/о н/о +6.0 +2.6 79 +2 +2 тепло 1019.9 1013.8
08 23.03 В 4-5
{6}
н/о н/о +5.9 +3.3 83 +2 +2 по сезону 1020.2 1014.1
09 23.03 СВ 4 н/о н/о +6.2 +3.7 84 +2 +2 по сезону 1020.2 1014.1 0.7
10 23.03 СВ 4-6
{6}
н/о н/о +6.6 +4.2 85 +3 +3 по сезону 1020.2 1014.1
11 23.03 СВ 4-6
{6}
н/о н/о +6.8 +4.0 82 +3 +3 по сезону 1020.2 1014.1
12 23.03 СВ 5-7
{7}
н/о н/о +6.7 +3.7 81 +3 +3 прохладно 1020.1 1014.0 0.6
13 23.03 СВ 5-7
{7}
н/о н/о +6.8 +4.1 83 +3 +3 по сезону 1019.9 1013.8
14 23.03 СВ 4-6
{6}
н/о н/о +7.3 +4.1 80 +4 +4 по сезону 1019.7 1013.7
15 23.03 В 4-5
{7}
н/о н/о +7.6 +3.6 76 +4 +4 по сезону 1020.1 1014.1 0.1
16 23.03 СВ 2-3
{5}
н/о н/о +7.5 +2.9 73 +6 +6 тепло 1020.5 1014.5
17 23.03 СВ 4-5
{6}
н/о н/о +7.2 +2.2 71 +4 +4 по сезону 1020.8 1014.7
18 23.03 СВ 5 н/о н/о +6.9 +1.5 68 +3 +3 по сезону 1021.6 1015.5 +5.7 +7.6
19 23.03 СВ 4-6
{6}
н/о н/о +6.6 +1.7 71 +3 +3 тепло 1022.3 1016.2
20 23.03 СВ 4-5
{6}
н/о н/о +6.6 +1.6 70 +3 +3 по сезону 1022.9 1016.8
21 23.03 СВ 4-5
{6}
н/о н/о +6.6 +1.3 69 +3 +3 по сезону 1023.7 1017.6
22 23.03 СВ 3-4
{5}
н/о н/о +6.4 +1.1 69 +4 +4 тепло 1024.0 1017.9
23 23.03 С 3-5
{5}
н/о н/о +6.4 +1.1 69 +4 +4 тепло 1024.6 1018.5
00 24.03 СВ 4 н/о н/о +6.4 +0.5 66 +3 +3 по сезону 1025.2 1019.1
01 24.03 СВ 3-4
{5}
н/о н/о +5.1 0.0 70 +2 +2 тепло 1025.4 1019.3
02 24.03 С 2-3
{5}
н/о н/о +3.9 -0.1 75 +1 +1 по сезону 1026.1 1019.9
03 24.03 С 3-5
{5}
н/о н/о +2.4 -0.8 79 -2 -2 прохладно 1026.8 1020.6
04 24.03 СВ 3-3
{5}
н/о н/о +2.1 -0.8 81 -2 -2 тепло 1027.6 1021.4
05 24.03 С 2-3
{3}
н/о н/о +1.3 -1.5 82 -2 -2 по сезону 1028.3 1022.1
06 24.03 СЗ 1 н/о н/о +2.3 -0.5 82 +1 +1 по сезону 1029.5 1023.3 +1.1 +6.9
08 24.03 СВ 2-2
{4}
н/о н/о +7.2 +0.5 62 +5 +5 тепло 1030.9 1024.8
07 24.03 С 2-3
{3}
н/о н/о +4.9 +0.9 75 +2 +2 по сезону 1030.4 1024.2
09 24.03 СВ 3 н/о н/о +9.1 +0.7 56 +7 +7 тепло 1031.0 1024.9
10 24.03 В 4-6
{6}
н/о н/о +10.5 -0.3 47 +8 +8 тепло 1031.0 1025.0
11 24.03 В 3-6
{8}
н/о н/о +12.0 +0.3 45 +11 +11 тепло 1031.4 1025.4
12 24.03 С 3-6
{8}
н/о н/о +12.1 -0.5 42 +11 +11 тепло 1031.5 1025.5
14 24.03 С 2-9
{9}
н/о н/о +13.2 -0.7 38 +13 +13 тепло 1031.0 1025.0
13 24.03 С 2-4
{5}
н/о н/о +12.8 -1.1 38 +12 +12 тепло 1031.1 1025.1
15 24.03 СВ 3-4
{9}
н/о н/о +12.9 -1.2 38 +12 +12 тепло 1031.1 1025.1
16 24.03 СВ 1-3
{5}
н/о н/о +12.8 -1.2 38 +13 +13 тепло 1031.0 1025.0
17 24.03 С 3-4
{5}
н/о н/о +11.0 -0.3 46 +10 +10 тепло 1031.2 1025.2
18 24.03 С 3 н/о н/о +9.1 -0.4 51 +7 +7 по сезону 1031.5 1025.4 +2.4 +13.7
20 24.03 СВ 2-3
{5}
н/о н/о +7.2 -0.9 56 +6 +6 тепло 1032.2 1026.1
19 24.03 С 3-5
{5}
н/о н/о +8.5 -0.8 52 +6 +6 тепло 1032.0 1025.9
21 24.03 С 1-1
{5}
н/о н/о +6.7 -1.2 57 +6 +6 по сезону 1032.5 1026.4
22 24.03 СВ 1-1
{2}
н/о н/о +6.0 -1.5 59 +5 +5 тепло 1032.7 1026.5
23 24.03 С 2-3
{3}
н/о н/о +4.8 -2.4 60 +3 +3 тепло 1033.1 1026.9
00 25.03 ЮЗ 1 н/о н/о +5.4 -2.2 58 +5 +5 тепло 1032.7 1026.5
02 25.03 ЮЗ 1-1
{1}
н/о н/о +3.2 -1.7 70 +2 +2 тепло 1032.0 1025.8
01 25.03 штиль 0-1
{1}
н/о н/о +2.9 -2.4 68 +2 +2 тепло 1032.6 1026.4
03 25.03 СЗ 1-1
{2}
н/о н/о +2.5 -1.6 74 +1 +1 по сезону 1031.8 1025.6
04 25.03 З 1-2
{2}
н/о н/о +3.0 -2.0 70 +2 +2 тепло 1031.2 1025.0
05 25.03 З 2-3
{3}
н/о н/о +3.5 -2.2 66 +1 +1 тепло 1031.0 1024.8
06 25.03 З 2 н/о н/о +3.9 -1.7 67 +1 +1 по сезону 1031.0 1024.8 +2.4 +9.6
07 25.03 З 3-4
{4}
н/о н/о +5.1 -0.7 66 +2 +2 тепло 1030.9 1024.7
08 25.03 З 4-5
{5}
н/о н/о +7.0 -0.1 61 +4 +4 по сезону 1030.7 1024.6
09 25.03 СЗ 4 н/о н/о +8.6 -0.6 52 +6 +6 по сезону 1030.4 1024.3
10 25.03 СЗ 6-8
{8}
н/о н/о +9.3 -7.5 30 +6 +6 тепло 1030.1 1024.0
11 25.03 СЗ 6-8
{9}
н/о н/о +11.0 -4.6 33 +9 +9 тепло 1029.3 1023.3
12 25.03 З 6-9
{9}
н/о н/о +11.7 -3.6 34 +9 +9 по сезону 1028.3 1022.3
13 25.03 СЗ 6-7
{10}
н/о н/о +12.1 -2.0 37 +10 +10 тепло 1027.6 1021.6
14 25.03 СЗ 6-9
{10}
н/о н/о +12.0 +0.5 45 +10 +10 тепло 1026.6 1020.6
15 25.03 СЗ 6-8
{10}
н/о н/о +11.8 +1.6 50 +9 +9 тепло 1026.3 1020.3
16 25.03 СЗ 6-9
{9}
н/о н/о +11.5 +0.8 48 +9 +9 тепло 1025.2 1019.2
17 25.03 СЗ 6-8
{9}
н/о н/о +10.5 +0.8 51 +8 +8 тепло 1024.8 1018.8
18 25.03 С 6 н/о н/о +8.7 +0.3 56 +5 +5 по сезону 1025.2 1019.1 +3.9 +12.4
19 25.03 С 5-7
{9}
н/о н/о +7.7 +1.5 65 +4 +4 тепло 1025.8 1019.7
20 25.03 С 4-6
{8}
н/о н/о +7.3 +2.0 69 +4 +4 тепло 1025.7 1019.6
21 25.03 С 3-5
{9}
н/о н/о +6.6 +2.1 73 +4 +4 по сезону 1025.7 1019.6
22 25.03 С 4-5
{5}
н/о н/о +6.2 +2.3 76 +3 +3 тепло 1026.0 1019.9
23 25.03 С 2-3
{5}
н/о н/о +5.3 +2.1 80 +3 +3 тепло 1026.0 1019.9
00 26.03 С 2 н/о н/о +5.0 +2.1 81 +2 +2 по сезону 1026.0 1019.9
01 26.03 С 2-2
{3}
н/о н/о +3.8 +1.8 87 +1 +1 тепло 1025.9 1019.7
02 26.03 С 1-1
{2}
н/о н/о +4.1 +2.6 90 +3 +3 тепло 1025.6 1019.4
03 26.03 СВ 1-1
{3}
н/о н/о +3.0 +1.8 92 +1 +1 по сезону 1025.8 1019.6
05 26.03 штиль 0
{1}
н/о н/о +2.0 +1.4 96 +1 +1 тепло 1025.8 1019.6
04 26.03 С 1-1
{1}
н/о н/о +2.8 +2.0 94 +1 +1 по сезону 1025.8 1019.6
06 26.03 Ю 1 н/о н/о +2.7 +1.9 94 +1 +1 по сезону 1026.2 1020.0 +1.5 +8.6
07 26.03 ЮВ 1-2
{2}
н/о н/о +5.3 +3.3 87 +4 +4 тепло 1026.9 1020.8
08 26.03 ЮВ 1-2
{3}
н/о н/о +7.7 +4.0 77 +7 +7 тепло 1027.4 1021.3
09 26.03 Ю 1 н/о н/о +9.4 +4.0 69 +9 +9 тепло 1027.5 1021.5
11 26.03 С 2-3
{4}
н/о н/о +10.9 +2.0 54 +10 +10 тепло 1027.6 1021.6
10 26.03 З 1-3
{4}
н/о н/о +10.4 +3.1 61 +10 +10 тепло 1027.3 1021.3
12 26.03 С 1-3
{4}
н/о н/о +12.5 +2.6 51 +13 +13 тепло 1027.2 1021.2
13 26.03 СВ 1-3
{3}
н/о н/о +12.4 +0.5 44 +13 +13 тепло 1027.1 1021.1
14 26.03 С 1-1
{4}
н/о н/о +13.0 -0.2 40 +14 +14 тепло 1027.0 1021.0
15 26.03 СВ 1-2
{4}
н/о н/о +13.4 +1.2 43 +14 +14 тепло 1026.7 1020.7
17 26.03 ЮЗ 2-3
{3}
н/о н/о +12.8 -1.1 38 +12 +12 тепло 1026.3 1020.3
16 26.03 ЮВ 1-2
{4}
н/о н/о +13.4 -0.9 37 +14 +14 тепло 1026.6 1020.6
18 26.03 Ю 1 н/о н/о +11.7 -1.3 40 +12 +12 тепло 1026.6 1020.6 +2.7 +14.1
19 26.03 В 1-1
{2}
н/о н/о +8.9 -0.8 51 +9 +9 тепло 1026.9 1020.8
20 26.03 СЗ 1-1
{2}
н/о н/о +8.2 -0.8 53 +8 +8 тепло 1027.3 1021.2
21 26.03 штиль 0-1
{2}
н/о н/о +7.1 -0.8 57 +7 +7 тепло 1027.7 1021.6
23 26.03 ЮЗ 2-3
{3}
н/о н/о +6.2 +0.4 66 +4 +4 тепло 1027.4 1021.3
22 26.03 ЮЗ 2-2
{2}
н/о н/о +7.9 +0.6 60 +6 +6 тепло 1027.3 1021.2
00 27.03 штиль 0 н/о н/о +4.8 -0.1 71 +4 +4 по сезону 1027.8 1021.6
01 27.03 Ю 1-1
{1}
н/о н/о +5.0 +0.4 72 +4 +4 тепло 1027.6 1021.5
02 27.03 Ю 1-1
{1}
н/о н/о +3.6 +0.1 78 +2 +2 тепло 1027.7 1021.5
03 27.03 Ю 1-1
{1}
н/о н/о +3.3 +0.1 80 +2 +2 по сезону 1027.5 1021.3
04 27.03 ЮЗ 1-1
{1}
н/о н/о +2.8 0.0 82 +1 +1 тепло 1027.4 1021.2
05 27.03 ЮЗ 1-2
{3}
н/о н/о +3.9 +0.4 78 +3 +3 тепло 1027.7 1021.5
06 27.03 ЮЗ 1 н/о н/о +4.2 +0.7 78 +3 +3 по сезону 1027.6 1021.4 +2.7 +11.7
07 27.03 З 2-3
{3}
н/о н/о +8.2 +1.0 60 +7 +7 тепло 1027.4 1021.3
08 27.03 ЮЗ 2-3
{4}
н/о н/о +11.2 +0.9 49 +10 +10 тепло 1027.5 1021.5
09 27.03 З 2 н/о н/о +13.2 +0.3 41 +13 +13 тепло 1027.4 1021.4
10 27.03 З 2-4
{5}
н/о н/о +14.4 +1.1 40 +14 +14 тепло 1027.4 1021.5
12 27.03 З 3-5
{6}
н/о н/о +16.2 -0.1 33 +16 +16 тепло 1026.5 1020.6
13 27.03 З 3-5
{6}
н/о н/о +17.4 -0.1 31 +17 +17 тепло 1025.7 1019.8
14 27.03 З 2-3
{6}
н/о н/о +17.4 -1.6 27 +18 +18 тепло 1025.1 1019.2
15 27.03 З 1-4
{6}
н/о н/о +17.9 -0.3 29 +19 +19 тепло 1024.3 1018.4
17 27.03 ЮЗ 3-4
{4}
н/о н/о +16.7 -1.6 29 +17 +17 тепло 1023.5 1017.6
16 27.03 ЮЗ 2-4
{4}
н/о н/о +17.9 -1.9 26 +18 +18 тепло 1023.7 1017.8
18 27.03 ЮЗ 2 н/о н/о +15.3 -1.2 32 +15 +15 тепло 1023.4 1017.5 +4.2 +18.5
19 27.03 З 2-2
{2}
н/о н/о +14.2 -0.7 36 +14 +14 тепло 1023.5 1017.6
20 27.03 ЮЗ 1-2
{2}
н/о н/о +11.7 +0.2 45 +12 +12 тепло 1023.6 1017.6
21 27.03 ЮЗ 2-2
{3}
н/о н/о +10.9 -0.1 47 +10 +10 тепло 1023.7 1017.7
23 27.03 ЮЗ 2-3
{3}
н/о н/о +10.3 +0.4 50 +9 +9 тепло 1023.1 1017.1
22 27.03 ЮЗ 2-2
{3}
н/о н/о +10.9 +0.2 48 +10 +10 тепло 1023.5 1017.5
00 28.03 ЮЗ 2 н/о н/о +9.2 +0.6 55 +8 +8 тепло 1022.7 1016.7
01 28.03 Ю 1-1
{2}
н/о н/о +7.2 +0.4 62 +7 +7 тепло 1022.6 1016.5
02 28.03 ЮЗ 1-2
{2}
н/о н/о +6.7 +1.0 67 +6 +6 тепло 1022.0 1015.9
03 28.03 Ю 1-1
{2}
н/о н/о +5.4 +0.4 70 +4 +4 по сезону 1021.9 1015.8
05 28.03 ЮВ 1-1
{2}
н/о н/о +4.8 +0.4 73 +4 +4 тепло 1021.9 1015.8
04 28.03 Ю 1-1
{2}
н/о н/о +5.3 +0.6 72 +4 +4 тепло 1021.7 1015.6
06 28.03 ЮЗ 1 н/о н/о +5.8 +1.3 73 +5 +5 тепло 1022.0 1015.9 +4.5 +15.2
07 28.03 Ю 1-2
{2}
н/о н/о +9.1 +2.4 63 +9 +9 тепло 1022.2 1016.2
08 28.03 ЮЗ 1-2
{2}
н/о н/о +12.2 +2.2 50 +13 +13 тепло 1022.2 1016.2
09 28.03 Ю 1 н/о н/о +14.6 +1.8 42 +15 +15 тепло 1022.0 1016.1
10 28.03 ЮЗ 2-4
{4}
н/о н/о +16.9 +2.7 39 +17 +17 тепло 1022.0 1016.1
11 28.03 ЮЗ 1-4
{5}
н/о н/о +18.5 +1.7 32 +20 +20 тепло 1021.4 1015.6
12 28.03 Ю 2-5
{5}
н/о н/о +19.8 +0.7 28 +21 +21 комфорт 1020.7 1014.9
13 28.03 З 3-7
{7}
н/о н/о +20.6 +1.6 28 +21 +21 комфорт 1020.2 1014.4
14 28.03 ЮЗ 4-6
{6}
н/о н/о +21.0 +1.1 27 +21 +21 комфорт 1019.4 1013.6
15 28.03 ЮЗ 5-8
{8}
н/о н/о +21.3 -1.3 22 +21 +21 комфорт 1018.8 1013.0
16 28.03 ЮЗ 4-7
{8}
н/о н/о +21.2 -1.0 23 +21 +21 комфорт 1018.5 1012.7
19 28.03 ЮЗ 3-4
{5}
н/о н/о +16.6 -0.8 31 +16 +16 тепло 1018.9 1013.0
20 28.03 ЮЗ 3-4
{4}
н/о н/о +15.4 +0.2 35 +15 +15 тепло 1019.1 1013.2
21 28.03 ЮЗ 2-3
{5}
н/о н/о +14.2 +0.8 40 +14 +14 тепло 1019.1 1013.2
23 28.03 З 3-5
{5}
н/о н/о +13.1 +3.4 52 +12 +12 тепло 1019.7 1013.8
22 28.03 ЮЗ 3-4
{4}
н/о н/о +13.4 +2.0 46 +12 +12 тепло 1019.4 1013.5
00 29.03 З 3 н/о н/о +12.1 +3.6 56 +11 +11 тепло 1019.7 1013.8
01 29.03 З 3-5
{5}
н/о н/о +11.4 +3.8 60 +10 +10 тепло 1020.1 1014.1
02 29.03 ЮЗ 2-4
{4}
н/о н/о +10.2 +3.7 64 +9 +9 тепло 1019.7 1013.7
03 29.03 ЮЗ 3-3
{5}
н/о н/о +9.8 +3.5 65 +8 +8 тепло 1019.8 1013.8
05 29.03 ЮЗ 3-4
{4}
н/о н/о +9.2 +3.2 66 +7 +7 тепло 1019.7 1013.7
04 29.03 ЮЗ 3-4
{4}
н/о н/о +9.5 +3.4 66 +7 +7 тепло 1019.6 1013.6
06 29.03 З 3 н/о н/о +10.3 +3.7 64 +8 +8 тепло 1020.0 1014.0 +9.0 +18.2
07 29.03 З 5-9
{9}
н/о н/о +12.6 +4.6 58 +11 +11 тепло 1019.9 1014.0
08 29.03 З 6-10
{11}
н/о н/о +13.4 +6.1 61 +11 +11 тепло 1020.0 1014.1
09 29.03 З 7 н/о н/о +13.4 +6.0 61 +11 +11 тепло 1020.6 1014.7
10 29.03 З 7-10
{13}
н/о н/о +14.1 +6.8 61 +12 +12 тепло 1021.0 1015.1

 

Местоположение метеостанции Berlin (Германия): широта 52.47 долгота 13.40 высота над уровнем моря 50 м.

В архиве по умолчанию представлена погода в Berlin за последнюю неделю. Архивные данные за месяц целиком и за предыдущие месяцы, начиная с января 2011 года, Вы можете получить, выбрав интересующий диапазон дат из раскрывающегося списка и нажав кнопку "Ввод!".

Внимание! Время в таблицах - всемирное. Для получения местного времени необходимо прибавить поправку, которая в Berlin равна 1 ч.

Смотрите также архив погоды в соседних городах и на ближайших метеорологических станциях:

Погода в Berlin-Dahlem (Германия) (7 км)
Погода в Berlin-Tegel (Германия) (12 км)
Погода в Berlin-Schonefeld (Германия) (13 км)
Погода в Potsdam (Германия) (25 км)
Погода в Baruth (Германия) (42 км)
Погода в Lindenberg (Германия) (56 км)
Погода в Neuruppin (Германия) (62 км)
Погода в Angermuende (Германия) (74 км)
Погода в Wiesenburg (Германия) (74 км)
Погода в Manschnow (Германия) (78 км)

Пояснения к столбцам:

Ветер - указаны скорость ветра в м/с - средняя за 10 мин, порывы в срок и между сроками (в фигурных скобках) и направление, откуда дует ветер: С - северный, СВ - северо-восточный, В - восточный, ЮВ - юго-восточный, Ю - южный, ЮЗ - юго-западный, З - западный, СЗ - северо-западный.
Видимость - горизонтальная дальность видимости в метрах или километрах. При видимости от 1 до 10 км при отсутствии осадков обычно наблюдается дымка, при ухудшении видимости до 1 км и менее - туман. В сухую погоду видимость может ухудшаться дымом, пылью или мглою.
Явления - указаны атмосферные явления, наблюдавшиеся в срок или в последний час перед сроком; фигурными скобками обозначены явления, наблюдавшиеся между сроками (за 1-3 часа до срока); квадратными скобками обозначены град или гололедные отложения с указанием их диаметра в мм.
Облачность - указаны через наклонную черту общая и нижняя облачность в баллах и высота нижней границы облаков в метрах; квадратными скобками обозначены формы облаков: Ci - перистые, Cs - перисто-слоистые, Cc - перисто-кучевые, Ac - высококучевые, As - высокослоистые, Sc - слоисто-кучевые, Ns - слоисто-дождевые, Cu - кучевые, Cb - кучево-дождевые. Подробнее классификацию облаков см. в Атласе облаков (PDF).
T - Температура воздуха - температура, измеренная на высоте 2 м над землей.
Td - Температура точки росы - температура, при понижении до которой содержащийся в воздухе водяной пар достигнет насыщения.
f - Относительная влажность воздуха - влажноcть воздуха, измеренная на высоте 2 м над землей.
Te - Эффективная температура - температура, которую ощущает одетый по сезону человек в тени. Характеристика душности погоды. При расчете учитывается влияние влажности воздуха и скорости ветра на теплоощущения человека.
Tes - Эффективная температура на солнце - температура, которую ощущает человек, с поправкой на солнечный нагрев. Характеристика знойности погоды. Зависит от высоты солнца над горизонтом, облачности и скорости ветра. Ночью, в пасмурную погоду, а также при ветре 12 м/с и более поправка равна нулю.
P - Атмосферное давление - приведенное к уровню моря атмосферное давление.
Po - Атмосферное давление - измеренное на уровне метеостанции атмосферное давление.
Tmin - Минимальная температура - минимум температуры воздуха на высоте 2 м над землей.
Tmax - Максимальная температура - максимум температуры воздуха на высоте 2 м над землей.
R - Количество осадков - Количество выпавших осадков, мм. При наведении курсора мыши на число - период времени, за который выпало указанное количество осадков.
S - Снежный покров - Высота снежного покрова, см. При наведении курсора мыши на число - состояние снежного покрова и степень покрытия местности в баллах.